This is the latest recevied weather packets stored in our database for station/object WV5G-13. If no packets are shown the sender has not sent any weather packets the latest 10 day(s).
| Time | Temp. | Humidity | Pressure | Rain* | Wind** | Luminosity | Snow |
|---|---|---|---|---|---|---|---|
| 1778025856 | 15° C | 45% | 1006.6 hPa | 0 mm | - | 126 W/m² | - |
| 1778025552 | 15° C | 46% | 1006.4 hPa | 0 mm | - | 127 W/m² | - |
| 1778025250 | 15° C | 46% | 1006.3 hPa | 0 mm | - | 124 W/m² | - |
| 1778024947 | 15° C | 45% | 1006.3 hPa | 0 mm | - | 135 W/m² | - |
| 1778024644 | 15.56° C | 44% | 1006.6 hPa | 0 mm | - | 172 W/m² | - |
| 1778024341 | 15.56° C | 44% | 1006.7 hPa | 0 mm | - | 191 W/m² | - |
| 1778024039 | 15.56° C | 44% | 1006.7 hPa | 0 mm | - | 194 W/m² | - |
| 1778023736 | 15.56° C | 43% | 1006.4 hPa | 0 mm | - | 201 W/m² | - |
| 1778023434 | 15.56° C | 43% | 1006.4 hPa | 0 mm | - | 267 W/m² | - |
| 1778023130 | 16.11° C | 43% | 1006.2 hPa | 0 mm | - | 262 W/m² | - |
| 1778022828 | 15.56° C | 44% | 1006.4 hPa | 0 mm | - | 229 W/m² | - |
| 1778022526 | 16.11° C | 43% | 1006.7 hPa | 0 mm | - | 205 W/m² | - |
| 1778022223 | 15.56° C | 44% | 1006.4 hPa | 0 mm | - | 246 W/m² | - |
| 1778021919 | 16.11° C | 43% | 1006.8 hPa | 0 mm | - | 263 W/m² | - |
| 1778021617 | 15.56° C | 44% | 1006.6 hPa | 0 mm | - | 258 W/m² | - |
| 1778021311 | 15.56° C | 44% | 1006.9 hPa | 0 mm | - | 238 W/m² | - |
| 1778021010 | 15.56° C | 44% | 1006.8 hPa | 0 mm | - | 234 W/m² | - |
| 1778020707 | 15.56° C | 44% | 1006.7 hPa | 0 mm | - | 234 W/m² | - |
| 1778020404 | 16.11° C | 43% | 1006.8 hPa | 0 mm | - | 237 W/m² | - |
| 1778020099 | 15.56° C | 43% | 1007 hPa | 0 mm | - | 230 W/m² | - |
| 1778019795 | 16.11° C | 43% | 1007.2 hPa | 0 mm | - | 254 W/m² | - |
| 1778019493 | 16.11° C | 42% | 1006.9 hPa | 0 mm | - | 274 W/m² | - |
| 1778019190 | 16.11° C | 42% | 1006.8 hPa | 0 mm | - | 301 W/m² | - |
| 1778018887 | 16.11° C | 42% | 1007 hPa | 0 mm | - | 343 W/m² | - |
| 1778018584 | 16.11° C | 42% | 1007.1 hPa | 0 mm | - | 328 W/m² | - |
* Rain latest hour (hover to see other rain measurements)
** Current wind speed in m/s (hover to see current wind gust speed)